{"data":{"norad_id":56812,"intl_designator":"2023-078AX","name":"STARLINK-6065","alt_names":[],"object_type":"PAYLOAD","status":"ACTIVE","operator":null,"country":"US","launch_date":"2023-05-31","launch_site_code":"AFWTR","launch_vehicle":null,"mission":null,"orbit_class":"UNKNOWN","rcs_meters":null,"size_class":null,"mass_kg":null,"dimensions":null,"purposes":["comms"],"wikipedia_slug":null,"has_3d_model":false,"image_url":null,"decayed_at":null,"tle_current":{"epoch":"2026-05-25T02:39:34.631136Z","epoch_age_seconds":59482,"freshness":"FRESH","line1":"1 56812U 23078AX  26145.11081749 -.00001753  00000+0 -13908-3 0  9992","line2":"2 56812  69.9989 131.6578 0003402 270.4567  89.6202 14.98340104164625","mean_motion":14.98340104,"eccentricity":0.0003402,"inclination_deg":69.9989,"raan_deg":131.6578,"arg_perigee_deg":270.4567,"mean_anomaly_deg":89.6202,"bstar":-0.00013908,"rev_number":16462,"period_min":96.106351031768,"perigee_km":569.66020034174,"apogee_km":574.38909032523,"semimajor_km":6950.1616453335,"source":"CELESTRAK","updated_at":"2026-05-25T13:38:18.160613Z"}}}